Location: La Brionne
(46.1728°N, 1.7849°E)
Time: 08:30:06
(UTC+00:00)

Cosmos 2333 Rocket - Pass Details

Date: 16 June 2021
Orbit: 841 x 861 km, 70.8° (Epoch: 31 July)

Event Time Altitude Azimuth Distance (km) Brightness Sun altitude
Exits shadow 22:50:56 10° 225° (SW) 2,525 4.4 -19.0°
Reaches altitude 10° 22:51:02 10° 225° (SW) 2,489 4.4 -19.0°
Maximum altitude 22:56:37 53° 302° (WNW) 1,042 2.9 -19.3°
Drops below altitude 10° 23:02:14 10° 19° (NNE) 2,493 5.5 -19.5°
Sets 23:04:45 0° 24° (NNE) 3,430 6.2 -19.6°
